H1 CPF 2 NER 2025 10 10 9 283 01 glonass132 H2 1401201 9132 39620 2025 10 10 0 0 0 2025 10 13 23 45 0 900 1 1 0 0 0 1 H9 10 0 60958 0.00000 0 -15311799.285 20110057.607 -3556621.896 10 0 60958 900.00000 0 -14815897.663 19668617.306 -6706784.303 10 0 60958 1800.00000 0 -14178456.957 18855312.223 -9726855.771 10 0 60958 2700.00000 0 -13458061.486 17667545.118 -12558185.828 10 0 60958 3600.00000 0 -12714016.005 16116141.451 -15145739.729 10 0 60958 4500.00000 0 -12003702.361 14225117.699 -17439170.873 10 0 60958 5400.00000 0 -11380029.224 12030907.886 -19393805.184 10 0 60958 6300.00000 0 -10889082.775 9581078.485 -20971517.922 10 0 60958 7200.00000 0 -10568078.157 6932583.399 -22141485.341 10 0 60958 8100.00000 0 -10443698.930 4149630.081 -22880795.965 10 0 60958 9000.00000 0 -10530895.724 1301244.343 -23174908.888 10 0 60958 9900.00000 0 -10832195.988 -1541365.650 -23017949.377 10 0 60958 10800.00000 0 -11337555.251 -4307537.049 -22412835.178 10 0 60958 11700.00000 0 -12024757.398 -6929858.283 -21371230.197 10 0 60958 12600.00000 0 -12860348.149 -9346740.530 -19913325.610 10 0 60958 13500.00000 0 -13801063.105 -11504747.250 -18067451.941 10 0 60958 14400.00000 0 -14795690.522 -13360584.317 -15869529.076 10 0 60958 15300.00000 0 -15787290.106 -14882667.367 -13362364.643 10 0 60958 16200.00000 0 -16715673.648 -16052200.836 -10594814.449 10 0 60958 17100.00000 0 -17520041.840 -16863723.855 -7620821.696 10 0 60958 18000.00000 0 -18141664.630 -17325100.890 -4498354.477 10 0 60958 18900.00000 0 -18526490.502 -17456958.785 -1288263.310 10 0 60958 19800.00000 0 -18627573.040 -17291595.609 1946917.721 10 0 60958 20700.00000 0 -18407211.022 -16871409.262 5144201.408 10 0 60958 21600.00000 0 -17838710.737 -16246914.354 8241384.094 10 0 60958 22500.00000 0 -16907695.615 -15474433.173 11178263.276 10 0 60958 23400.00000 0 -15612907.777 -14613560.194 13897811.531 10 0 60958 24300.00000 0 -13966467.985 -13724508.748 16347283.457 10 0 60958 25200.00000 0 -11993583.508 -12865452.767 18479234.146 10 0 60958 26100.00000 0 -9731716.766 -12089976.183 20252429.897 10 0 60958 27000.00000 0 -7229250.093 -11444737.179 21632634.470 10 0 60958 27900.00000 0 -4543702.758 -10967444.848 22593256.963 10 0 60958 28800.00000 0 -1739574.646 -10685232.134 23115850.270 10 0 60958 29700.00000 0 1114094.028 -10613491.935 23190452.070 10 0 60958 30600.00000 0 3946346.436 -10755223.702 22815763.235 10 0 60958 31500.00000 0 6687008.560 -11100916.545 21999161.465 10 0 60958 32400.00000 0 9269354.036 -11628972.644 20756550.772 10 0 60958 33300.00000 0 11632625.804 -12306652.558 19112050.202 10 0 60958 34200.00000 0 13724311.932 -13091502.542 17097527.858 10 0 60958 35100.00000 0 15502083.201 -13933204.297 14751988.855 10 0 60958 36000.00000 0 16935313.731 -14775770.135 12120828.308 10 0 60958 36900.00000 0 18006122.938 -15559992.285 9254962.873 10 0 60958 37800.00000 0 18709896.601 -16226044.417 6209856.535 10 0 60958 38700.00000 0 19055266.082 -16716126.943 3044458.328 10 0 60958 39600.00000 0 19063546.945 -16977045.480 -179928.425 10 0 60958 40500.00000 0 18767660.557 -16962614.311 -3400824.404 10 0 60958 41400.00000 0 18210583.663 -16635783.522 -6555777.991 10 0 60958 42300.00000 0 17443390.631 -15970399.620 -9583571.481 10 0 60958 43200.00000 0 16522970.183 -14952524.383 -12425406.700 10 0 60958 44100.00000 0 15509512.217 -13581254.832 -15026047.067 10 0 60958 45000.00000 0 14463870.166 -11869007.865 -17334893.785 10 0 60958 45900.00000 0 13444909.800 -9841255.317 -19306974.983 10 0 60958 46800.00000 0 12506956.190 -7535718.184 -20903828.207 10 0 60958 47700.00000 0 11697446.702 -5001051.389 -22094258.545 10 0 60958 48600.00000 0 11054889.405 -2295071.911 -22854957.075 10 0 60958 49500.00000 0 10607213.643 517397.585 -23170966.878 10 0 60958 50400.00000 0 10370583.157 3366981.133 -23035986.756 10 0 60958 51300.00000 0 10348722.711 6182396.633 -22452505.909 10 0 60958 52200.00000 0 10532787.541 8893188.072 -21431766.055 10 0 60958 53100.00000 0 10901781.929 11432429.071 -19993550.900 10 0 60958 54000.00000 0 11423509.828 13739284.906 -18165806.282 10 0 60958 54900.00000 0 12056017.671 15761325.752 -15984097.829 10 0 60958 55800.00000 0 12749468.298 17456494.154 -13490916.377 10 0 60958 56700.00000 0 13448366.302 18794644.157 -10734844.692 10 0 60958 57600.00000 0 14094039.791 19758587.681 -7769602.093 10 0 60958 58500.00000 0 14627272.325 20344604.616 -4652986.364 10 0 60958 59400.00000 0 14990972.287 20562396.070 -1445734.618 10 0 60958 60300.00000 0 15132765.196 20434484.079 1789673.379 10 0 60958 61200.00000 0 15007397.907 19995084.726 4990244.660 10 0 60958 62100.00000 0 14578851.853 19288504.207 8093709.951 10 0 60958 63000.00000 0 13822075.169 18367127.516 11039742.708 10 0 60958 63900.00000 0 12724260.162 17289086.619 13771135.619 10 0 60958 64800.00000 0 11285612.141 16115708.120 16234911.240 10 0 60958 65700.00000 0 9519577.493 14908849.262 18383345.148 10 0 60958 66600.00000 0 7452521.828 13728235.111 20174882.249 10 0 60958 67500.00000 0 5122872.102 12628909.011 21574929.392 10 0 60958 68400.00000 0 2579758.949 11658902.841 22556510.236 10 0 60958 69300.00000 0 -118784.036 10857223.814 23100771.202 10 0 60958 70200.00000 0 -2907989.299 10252240.707 23197330.294 10 0 60958 71100.00000 0 -5718803.102 9860535.430 22844463.562 10 0 60958 72000.00000 0 -8480511.459 9686266.307 22049126.834 10 0 60958 72900.00000 0 -11123436.723 9721068.147 20826813.226 10 0 60958 73800.00000 0 -13581594.692 9944492.025 19201249.663 10 0 60958 74700.00000 0 -15795203.861 10324965.568 17203938.354 10 0 60958 75600.00000 0 -17712944.576 10821233.102 14873551.705 10 0 60958 76500.00000 0 -19293876.009 11384215.388 12255191.659 10 0 60958 77400.00000 0 -20508932.727 11959211.322 9399526.867 10 0 60958 78300.00000 0 -21341939.707 12488349.763 6361823.246 10 0 60958 79200.00000 0 -21790104.265 12913189.183 3200885.564 10 0 60958 80100.00000 0 -21863964.704 13177356.343 -22070.490 10 0 60958 81000.00000 0 -21586797.894 13229113.331 -3244594.826 10 0 60958 81900.00000 0 -20993510.286 13023744.827 -6404205.997 10 0 60958 82800.00000 0 -20129058.399 12525664.611 -9439597.872 10 0 60958 83700.00000 0 -19046464.496 11710151.618 -12291826.832 10 0 60958 84600.00000 0 -17804510.152 10564641.053 -14905456.508 10 0 60958 85500.00000 0 -16465204.148 9089514.351 -17229637.694 10 0 60959 0.00000 0 -15091130.847 7298352.764 -19219102.045 10 0 60959 900.00000 0 -13742789.589 5217640.490 -20835050.870 10 0 60959 1800.00000 0 -12476038.860 2885929.716 -22045918.658 10 0 60959 2700.00000 0 -11339750.458 352496.972 -22827999.398 10 0 60959 3600.00000 0 -10373774.591 -2324452.949 -23165920.123 10 0 60959 4500.00000 0 -9607301.316 -5079963.169 -23052952.754 10 0 60959 5400.00000 0 -9057688.039 -7844791.475 -22491157.160 10 0 60959 6300.00000 0 -8729803.079 -10548065.641 -21491351.741 10 0 60959 7200.00000 0 -8615913.482 -13120016.979 -20072911.277 10 0 60959 8100.00000 0 -8696122.196 -15494678.112 -18263395.196 10 0 60959 9000.00000 0 -8939336.255 -17612432.041 -16098012.927 10 0 60959 9900.00000 0 -9304724.852 -19422305.503 -13618936.423 10 0 60959 10800.00000 0 -9743605.081 -20883910.216 -10874473.239 10 0 60959 11700.00000 0 -10201674.621 -21968950.383 -7918116.633 10 0 60959 12600.00000 0 -10621495.580 -22662233.182 -4807491.920 10 0 60959 13500.00000 0 -10945122.814 -22962140.240 -1603220.710 10 0 60959 14400.00000 0 -11116763.797 -22880541.095 1632273.609 10 0 60959 15300.00000 0 -11085355.818 -22442153.642 4835994.350 10 0 60959 16200.00000 0 -10806950.011 -21683380.157 7945608.667 10 0 60959 17100.00000 0 -10246800.288 -20650669.873 10900668.034 10 0 60959 18000.00000 0 -9381068.148 -19398479.048 13643787.330 10 0 60959 18900.00000 0 -8198071.106 -17986916.218 16121759.117 10 0 60959 19800.00000 0 -6699022.111 -16479173.203 18286581.442 10 0 60959 20700.00000 0 -4898229.149 -14938850.826 20096379.657 10 0 60959 21600.00000 0 -2822746.984 -13427291.983 21516205.327 10 0 60959 22500.00000 0 -511495.945 -12001033.633 22518698.030 10 0 60959 23400.00000 0 1986115.240 -10709483.574 23084598.752 10 0 60959 24300.00000 0 4612005.279 -9592917.812 23203106.520 10 0 60959 25200.00000 0 7301599.758 -8680880.507 22872072.893 10 0 60959 26100.00000 0 9986284.416 -7991051.468 22098031.804 10 0 60959 27000.00000 0 12596031.645 -7528626.588 20896065.098 10 0 60959 27900.00000 0 15062092.749 -7286235.447 19289506.871 10 0 60959 28800.00000 0 17319645.863 -7244398.141 17309492.391 10 0 60959 29700.00000 0 19310291.412 -7372501.316 14994359.975 10 0 60959 30600.00000 0 20984293.069 -7630252.047 12388916.676 10 0 60959 31500.00000 0 22302472.444 -7969548.564 9543581.061 10 0 60959 32400.00000 0 23237679.766 -8336689.543 6513418.571 10 0 60959 33300.00000 0 23775779.988 -8674829.623 3357086.978 10 0 60959 34200.00000 0 23916113.492 -8926578.338 135711.351 10 0 60959 35100.00000 0 23671412.121 -9036633.449 -3088290.611 10 0 60959 36000.00000 0 23067173.686 -8954337.855 -6252410.856 10 0 60959 36900.00000 0 22140520.571 -8636052.114 -9295258.006 10 0 60959 37800.00000 0 20938589.521 -8047241.870 -12157746.036 10 0 60959 38700.00000 0 19516519.345 -7164191.075 -14784241.598 10 0 60959 39600.00000 0 17935120.246 -5975267.235 -17123647.606 10 0 60959 40500.00000 0 16258321.915 -4481683.403 -19130401.782 10 0 60959 41400.00000 0 14550507.051 -2697722.561 -20765370.371 10 0 60959 42300.00000 0 12873841.958 -650412.442 -21996619.160 10 0 60959 43200.00000 0 11285716.212 1621338.076 -22800046.181 10 0 60959 44100.00000 0 9836399.019 4068107.278 -23159863.135 10 0 60959 45000.00000 0 8567010.952 6631778.486 -23068915.344 10 0 60959 45900.00000 0 7507896.661 9247733.248 -22528833.172 10 0 60959 46800.00000 0 6677467.325 11847329.502 -21550011.088 10 0 60959 47700.00000 0 6081561.886 14360561.916 -20151413.896 10 0 60959 48600.00000 0 5713354.144 16718793.539 -18360213.161 10 0 60959 49500.00000 0 5553809.562 18857444.448 -16211260.277 10 0 60959 50400.00000 0 5572672.171 20718524.433 -13746406.129 10 0 60959 51300.00000 0 5729939.198 22252903.096 -11013680.564 10 0 60959 52200.00000 0 5977760.019 23422221.624 -8066347.997 10 0 60959 53100.00000 0 6262677.717 24200365.638 -4961858.291 10 0 60959 54000.00000 0 6528116.708 24574437.184 -1760714.404 10 0 60959 54900.00000 0 6717009.322 24545185.408 1474719.868 10 0 60959 55800.00000 0 6774448.283 24126878.647 4681447.309 10 0 60959 56700.00000 0 6650251.171 23346624.610 7797074.589 10 0 60959 57600.00000 0 6301326.943 22243168.889 10761034.102 10 0 60959 58500.00000 0 5693743.465 20865224.186 13515765.583 10 0 60959 59400.00000 0 4804408.157 19269402.272 16007833.992 10 0 60959 60300.00000 0 3622290.656 17517837.191 18188961.946 10 0 60959 61200.00000 0 2149136.174 15675600.604 20016957.039 10 0 60959 62100.00000 0 399639.861 13808018.293 21456517.022 10 0 60959 63000.00000 0 -1598924.778 11978000.152 22479898.525 10 0 60959 63900.00000 0 -3807607.603 10243494.692 23067437.847 10 0 60959 64800.00000 0 -6177176.013 8655173.190 23207915.366 10 0 60959 65700.00000 0 -8649943.782 7254438.421 22898758.008 10 0 60959 66600.00000 0 -11161959.058 6071839.083 22146077.154 10 0 60959 67500.00000 0 -13645461.579 5125953.964 20964542.190 10 0 60959 68400.00000 0 -16031508.366 4422790.347 19377092.647 10 0 60959 69300.00000 0 -18252660.287 3955720.035 17414494.612 10 0 60959 70200.00000 0 -20245619.537 3705954.227 15114749.622 10 0 60959 71100.00000 0 -21953709.922 3643536.445 12522366.798 10 0 60959 72000.00000 0 -23329098.157 3728811.388 9687511.344 10 0 60959 72900.00000 0 -24334664.716 3914308.007 6665044.830 10 0 60959 73800.00000 0 -24945446.985 4146957.886 3513474.628 10 0 60959 74700.00000 0 -25149594.750 4370555.997 293831.875 10 0 60959 75600.00000 0 -24948798.014 4528360.592 -2931501.285 10 0 60959 76500.00000 0 -24358168.772 4565722.929 -6099993.169 10 0 60959 77400.00000 0 -23405580.980 4432635.903 -9150169.922 10 0 60959 78300.00000 0 -22130495.413 4086093.704 -12022805.636 10 0 60959 79200.00000 0 -20582317.647 3492162.167 -14662072.254 10 0 60959 80100.00000 0 -18818356.979 2627671.211 -17016626.764 10 0 60959 81000.00000 0 -16901470.928 1481456.371 -19040614.363 10 0 60959 81900.00000 0 -14897493.260 55095.043 -20694567.728 10 0 60959 82800.00000 0 -12872552.778 -1636895.839 -21946184.388 10 0 60959 83700.00000 0 -10890394.893 -3567411.524 -22770966.547 10 0 60959 84600.00000 0 -9009818.029 -5697648.262 -23152710.175 10 0 60959 85500.00000 0 -7282332.400 -7978494.252 -23083833.098 10 0 60960 0.00000 0 -5750139.571 -10352366.266 -22565534.902 10 0 60960 900.00000 0 -4444516.993 -12755417.911 -21607784.290 10 0 60960 1800.00000 0 -3384677.531 -15120024.979 -20229134.061 10 0 60960 2700.00000 0 -2577149.269 -17377448.644 -18456365.599 10 0 60960 3600.00000 0 -2015703.609 -19460561.913 -16323969.789 10 0 60960 4500.00000 0 -1681833.455 -21306525.993 -13873473.877 10 0 60960 5400.00000 0 -1545760.695 -22859303.537 -11152627.435 10 0 60960 6300.00000 0 -1567929.324 -24071902.571 -8214463.539 10 0 60960 7200.00000 0 -1700919.661 -24908256.168 -5116254.216 10 0 60960 8100.00000 0 -1891700.929 -25344658.406 -1918381.543 10 0 60960 9000.00000 0 -2084124.937 -25370696.141 1316852.333 10 0 60960 9900.00000 0 -2221553.302 -24989637.731 4526451.589 10 0 60960 10800.00000 0 -2249505.115 -24218263.194 7647964.208 10 0 60960 11700.00000 0 -2118211.359 -23086144.169 10620705.214 10 0 60960 12600.00000 0 -1784966.766 -21634405.486 13386940.819 10 0 60960 13500.00000 0 -1216178.937 -19914022.043 15893009.934 10 0 60960 14400.00000 0 -389027.842 -17983724.011 18090361.186 10 0 60960 15300.00000 0 707334.224 -15907599.514 19936485.719 10 0 60960 16200.00000 0 2071092.391 -13752495.947 21395728.609 10 0 60960 17100.00000 0 3687617.276 -11585328.847 22439964.454 10 0 60960 18000.00000 0 5529857.289 -9470410.313 23049125.548 10 0 60960 18900.00000 0 7559258.573 -7466907.394 23211574.032 10 0 60960 19800.00000 0 9727174.216 -5626534.802 22924312.342 10 0 60960 20700.00000 0 11976704.363 -3991576.146 22193029.180 10 0 60960 21600.00000 0 14244891.384 -2593313.892 21031981.070 10 0 60960 22500.00000 0 16465179.840 -1450931.233 19463712.316 10 0 60960 23400.00000 0 18570040.240 -570929.613 17518618.892 10 0 60960 24300.00000 0 20493648.912 52915.612 15234364.357 10 0 60960 25200.00000 0 22174513.938 439060.867 12655158.410 10 0 60960 26100.00000 0 23557939.101 617183.030 9830911.112 10 0 60960 27000.00000 0 24598224.214 626693.938 6816278.065 10 0 60960 27900.00000 0 25260510.749 514843.184 3669613.863 10 0 60960 28800.00000 0 25522195.966 334488.791 451853.066 10 0 60960 29700.00000 0 25373856.319 141629.291 -2774660.577 10 0 60960 30600.00000 0 24819640.974 -7199.107 -5947374.706 10 0 60960 31500.00000 0 23877118.114 -57550.636 -9004735.946 10 0 60960 32400.00000 0 22576579.370 40387.639 -11887381.386 10 0 60960 33300.00000 0 20959830.225 329446.912 -14539290.956 10 0 60960 34200.00000 0 19078515.813 843421.251 -16908878.192 10 0 60960 35100.00000 0 16992050.955 1605393.726 -18949997.979 10 0 60960 36000.00000 0 14765240.015 2626516.366 -20622851.354 10 0 60960 36900.00000 0 12465685.301 3905297.358 -21894769.254 10 0 60960 37800.00000 0 10161091.818 5427427.788 -22740859.402 10 0 60960 38700.00000 0 7916580.676 7166157.543 -23144503.069 10 0 60960 39600.00000 0 5792123.392 9083206.945 -23097691.254 10 0 60960 40500.00000 0 3840204.436 11130177.898 -22601192.891 10 0 60960 41400.00000 0 2103809.904 13250407.178 -21664550.926 10 0 60960 42300.00000 0 614826.783 15381185.408 -20305905.450 10 0 60960 43200.00000 0 -607080.100 17456249.478 -18551646.565 10 0 60960 44100.00000 0 -1555066.414 19408444.147 -16435903.074 10 0 60960 45000.00000 0 -2235157.156 21172440.913 -13999876.612 10 0 60960 45900.00000 0 -2665744.676 22687399.384 -11291034.110 10 0 60960 46800.00000 0 -2876558.142 23899458.535 -8362174.618 10 0 60960 47700.00000 0 -2907149.377 24763952.155 -5270389.395 10 0 60960 48600.00000 0 -2804960.856 25247254.516 -2075936.522 10 0 60960 49500.00000 0 -2623059.564 25328178.073 1158946.725 10 0 60960 50400.00000 0 -2417634.712 24998864.195 4371269.142 10 0 60960 51300.00000 0 -2245367.290 24265129.801 7498523.187 10 0 60960 52200.00000 0 -2160784.621 23146256.080 10479909.534 10 0 60960 53100.00000 0 -2213713.313 21674229.304 13257523.706 10 0 60960 54000.00000 0 -2446939.355 19892467.057 15777481.157 10 0 60960 54900.00000 0 -2894174.673 17854084.666 17990958.865 10 0 60960 55800.00000 0 -3578416.070 15619775.804 19855133.590 10 0 60960 56700.00000 0 -4510765.310 13255396.811 21333999.503 10 0 60960 57600.00000 0 -5689759.513 10829356.085 22399050.627 10 0 60960 58500.00000 0 -7101239.336 8409917.281 23029816.350 10 0 60960 59400.00000 0 -8718759.984 6062527.910 23214241.272 10 0 60960 60300.00000 0 -10504527.636 3847283.127 22948903.581 10 0 60960 61200.00000 0 -12410822.196 1816628.464 22239069.029 10 0 60960 62100.00000 0 -14381847.473 13394.825 21098580.457 10 0 60960 63000.00000 0 -16355932.493 -1530754.749 19549585.552 10 0 60960 63900.00000 0 -18267993.252 -2796404.156 17622108.223 10 0 60960 64800.00000 0 -20052153.699 -3776946.211 15353471.576 10 0 60960 65700.00000 0 -21644418.033 -4478605.794 12787582.967 10 0 60960 66600.00000 0 -22985284.156 -4919924.437 9974094.042 10 0 60960 67500.00000 0 -24022190.307 -5130728.750 6967450.935 10 0 60960 68400.00000 0 -24711693.411 -5150626.345 3825851.835 10 0 60960 69300.00000 0 -25021288.430 -5027092.437 610131.088 10 0 60960 70200.00000 0 -24930792.483 -4813227.442 -2617409.517 10 0 60960 71100.00000 0 -24433235.263 -4565279.687 -5794200.371 10 0 60960 72000.00000 0 -23535217.522 -4340037.429 -8858611.820 10 0 60960 72900.00000 0 -22256721.351 -4192200.109 -11751146.966 10 0 60960 73800.00000 0 -20630378.745 -4171839.969 -14415596.470 10 0 60960 74700.00000 0 -18700227.547 -4322061.698 -16800132.815 10 0 60960 75600.00000 0 -16520005.277 -4676959.784 -18858322.568 10 0 60960 76500.00000 0 -14151050.820 -5259961.057 -20550036.628 10 0 60960 77400.00000 0 -11659900.472 -6082623.947 -21842240.258 10 0 60960 78300.00000 0 -9115677.830 -7143946.983 -22709647.013 10 0 60960 79200.00000 0 -6587385.843 -8430217.753 -23135223.139 10 0 60960 80100.00000 0 -4141213.699 -9915410.837 -23110531.868 10 0 60960 81000.00000 0 -1837970.848 -11562120.021 -22635910.056 10 0 60960 81900.00000 0 269244.686 -13322987.445 -21720472.823 10 0 60960 82800.00000 0 2137046.088 -15142571.040 -20381945.227 10 0 60960 83700.00000 0 3733341.922 -16959572.800 -18646323.430 10 0 60960 84600.00000 0 5038438.341 -18709334.676 -16547371.298 10 0 60960 85500.00000 0 6045613.386 -20326497.131 -14125961.867 10 0 60961 0.00000 0 6761139.766 -21747707.885 -11429276.656 10 0 60961 900.00000 0 7203756.458 -22914266.780 -8509877.208 10 0 60961 1800.00000 0 7403611.871 -23774592.480 -5424671.327 10 0 60961 2700.00000 0 7400726.139 -24286408.623 -2233790.342 10 0 60961 3600.00000 0 7243038.507 -24418554.497 1000595.915 10 0 60961 4500.00000 0 6984124.977 -24152344.165 4215503.210 10 0 60961 5400.00000 0 6680684.860 -23482416.521 7348370.595 10 0 60961 6300.00000 0 6389904.602 -22417040.808 10338286.268 10 0 60961 7200.00000 0 6166812.104 -20977865.417 13127176.685 10 0 60961 8100.00000 0 6061734.655 -19199121.616 15660935.228 10 0 60961 9000.00000 0 6117968.601 -17126316.740 17890468.354 10 0 60961 9900.00000 0 6369759.301 -14814472.794 19772639.313 10 0 60961 10800.00000 0 6840676.264 -12325985.028 21271091.988 10 0 60961 11700.00000 0 7542451.229 -9728190.442 22356940.182 10 0 60961 12600.00000 0 8474327.263 -7090747.614 23009310.469 10 0 60961 13500.00000 0 9622945.370 -4482936.345 23215729.758 10 0 60961 14400.00000 0 10962772.767 -1970988.280 22972351.598 10 0 60961 15300.00000 0 12457054.560 384442.193 22284018.189 10 0 60961 16200.00000 0 14059249.067 2530563.754 21164157.896 10 0 60961 17100.00000 0 15714887.320 4424397.957 19634520.810 10 0 60961 18000.00000 0 17363779.848 6034314.242 17724757.618 10 0 60961 18900.00000 0 18942479.724 7341088.473 15471849.645 10 0 60961 19800.00000 0 20386900.254 8338442.786 12919400.388 10 0 60961 20700.00000 0 21634979.151 9033045.727 10116801.362 10 0 60961 21600.00000 0 22629278.939 9443973.756 7118287.308 10 0 60961 22500.00000 0 23319415.634 9601657.308 3981897.885 10 0 60961 23400.00000 0 23664214.435 9546355.853 768364.910 10 0 60961 24300.00000 0 23633502.139 9326226.001 -2460054.243 10 0 60961 25200.00000 0 23209460.695 8995063.653 -5640775.252 10 0 60961 26100.00000 0 22387484.216 8609815.027 -8712094.728 10 0 60961 27000.00000 0 21176502.236 8227961.234 -11614384.254 10 0 60961 27900.00000 0 19598754.031 7904886.674 -14291247.560 10 0 60961 28800.00000 0 17689021.722 7691342.504 -16690618.237 10 0 60961 29700.00000 0 15493352.393 7631112.724 -18765776.499 10 0 60961 30600.00000 0 13067320.909 7758982.260 -20476264.872 10 0 60961 31500.00000 0 10473904.451 8099093.928 -21788684.528 10 0 60961 32400.00000 0 7781056.189 8663765.090 -22677356.231 10 0 60961 33300.00000 0 5059078.278 9452815.599 -23124832.359 10 0 60961 34200.00000 0 2377903.096 10453437.175 -23122249.265 10 0 60961 35100.00000 0 -195604.286 11640611.578 -22669512.276 10 0 60961 36000.00000 0 -2600210.061 12978061.661 -21775308.842 10 0 60961 36900.00000 0 -4782634.951 14419696.718 -20456948.682 10 0 60961 37800.00000 0 -6699539.671 15911492.298 -18740033.231 10 0 60961 38700.00000 0 -8319089.481 17393725.978 -16657960.158 10 0 60961 39600.00000 0 -9622032.392 18803474.965 -14251272.190 10 0 60961 40500.00000 0 -10602246.176 20077269.908 -11566862.827 10 0 60961 41400.00000 0 -11266731.935 21153792.271 -8657054.654 10 0 60961 42300.00000 0 -11635055.626 21976500.415 -5578568.899 10 0 60961 43200.00000 0 -11738262.617 22496072.422 -2391407.289 10 0 60961 44100.00000 0 -11617312.977 22672561.471 842330.735 10 0 60961 45000.00000 0 -11321105.711 22477171.897 4059670.905 10 0 60961 45900.00000 0 -10904177.710 21893580.499 7198001.846 10 0 60961 46800.00000 0 -10424176.834 20918747.246 10196302.204 10 0 60961 47700.00000 0 -9939217.897 19563181.548 12996332.200 10 0 60961 48600.00000 0 -9505234.775 17850653.542 15543765.822 10 0 60961 49500.00000 0 -9173441.444 15817363.408 17789241.529 10 0 60961 50400.00000 0 -8988009.475 13510604.484 19689311.374 10 0 60961 51300.00000 0 -8984059.711 10986976.971 21207271.029 10 0 60961 52200.00000 0 -9186052.058 8310227.352 22313855.876 10 0 60961 53100.00000 0 -9606640.138 5548803.762 22987791.159 10 0 60961 54000.00000 0 -10246037.834 2773228.639 23216187.204 10 0 60961 54900.00000 0 -11091923.278 53396.928 22994773.609 10 0 60961 55800.00000 0 -12119883.492 -2544089.369 22327969.231 10 0 60961 56700.00000 0 -13294380.646 -4958441.525 21228787.631 10 0 60961 57600.00000 0 -14570199.449 -7136956.858 19718580.433 10 0 60961 58500.00000 0 -15894315.545 -9036951.754 17826623.676 10 0 60961 59400.00000 0 -17208107.497 -10627276.831 15589554.933 10 0 60961 60300.00000 0 -18449820.862 -11889353.200 13050671.387 10 0 60961 61200.00000 0 -19557182.314 -12817688.264 10259101.560 10 0 60961 62100.00000 0 -20470055.462 -13419850.799 7268865.612 10 0 60961 63000.00000 0 -21133027.951 -13715907.169 4137841.255 10 0 60961 63900.00000 0 -21497821.932 -13737342.712 926654.235 10 0 60961 64800.00000 0 -21525426.923 -13525513.585 -2302486.088 10 0 60961 65700.00000 0 -21187865.225 -13129693.975 -5486984.260 10 0 60961 66600.00000 0 -20469514.941 -12604800.464 -8565066.665 10 0 60961 67500.00000 0 -19367933.859 -12008889.081 -11476976.748 10 0 60961 68400.00000 0 -17894147.931 -11400530.238 -14166134.494 10 0 60961 69300.00000 0 -16072390.377 -10836172.198 -16580237.526 10 0 60961 70200.00000 0 -13939300.293 -10367604.428 -18672282.264 10 0 60961 71100.00000 0 -11542612.187 -10039628.307 -20401484.959 10 0 60961 72000.00000 0 -8939389.320 -9888034.197 -21734084.243 10 0 60961 72900.00000 0 -6193872.880 -9937971.231 -22644009.010 10 0 60961 73800.00000 0 -3375035.274 -10202779.849 -23113398.034 10 0 60961 74700.00000 0 -553938.539 -10683337.719 -23132960.393 10 0 60961 75600.00000 0 2198992.749 -11367948.160 -22702168.881 10 0 60961 76500.00000 0 4816670.766 -12232777.208 -21829281.727 10 0 60961 77400.00000 0 7237903.423 -13242822.215 -20531191.298 10 0 60961 78300.00000 0 9409706.167 -14353372.122 -18833101.911 10 0 60961 79200.00000 0 11289269.887 -15511898.466 -16768042.325 10 0 60961 80100.00000 0 12845502.463 -16660297.468 -14376221.996 10 0 60961 81000.00000 0 14060079.531 -17737388.298 -11704243.485 10 0 60961 81900.00000 0 14927960.791 -18681561.253 -8804186.622 10 0 60961 82800.00000 0 15457350.953 -19433462.954 -5732582.892 10 0 60961 83700.00000 0 15669108.256 -19938603.805 -2549301.024 10 0 60961 84600.00000 0 15595627.130 -20149776.256 683633.240 10 0 60961 85500.00000 0 15279244.135 -20029180.503 3903258.732 99